Regional Weather Roundup
Issued by NWS

Home | Current Version | Previous Version | Text Only | Print | Product List | Glossary Off
Versions: 1 2 3 4 5 6 7 8 9 10 11 12 13 14 15 16 17 18 19 20 21 22 23 24 25 26 27 28 29 30 31 32 33 34 35 36 37 38 39 40 41 42 43 44 45 46 47 48 49 50

175
ASUS45 KSLC 291510
RWRUT

UTAH REGIONAL WEATHER ROUNDUP
NATIONAL WEATHER SERVICE SALT LAKE CITY UT
900 AM MDT MON AUG 29 2016

UTZ001>011-023>025-291600-

NORTHERN UTAH

CITY           SKY/WX    TMP DP  RH WIND       PRES   REMARKS
BRIGHAM CITY     N/A     62  38  42 CALM      30.25S
HILL AFB       SUNNY     64  34  32 E21       30.26R
LOGAN          SUNNY     59  40  49 CALM      30.29R
OGDEN          SUNNY     68  36  30 S5        30.24R
PROVO AIRPORT  SUNNY     63  37  39 CALM      30.28R
SALT LAKE CITY MOSUNNY   72  39  30 SE8       30.23R
VERNAL         SUNNY     64  42  44 N3        30.32R
WENDOVER       SUNNY     70  34  26 NE3       30.24R
HEBER CITY     SUNNY     54  36  50 CALM      30.36R
WEST JORDAN    SUNNY     71  39  31 E3        30.26S

$$

UTZ012>022-026-027-291600-

SOUTHERN/CENTRAL UTAH

CITY           SKY/WX    TMP DP  RH WIND       PRES   REMARKS
BLANDING       SUNNY     66  41  39 CALM      30.41R
BRYCE CANYON   SUNNY     57  40  52 N5        30.44R
CEDAR CITY     SUNNY     63  41  44 N5        30.31R
DELTA          SUNNY     64  32  29 CALM      30.27
MILFORD        NOT AVBL
MOAB/CYNLANDS  SUNNY     68  44  42 SE9       30.24S
PRICE          SUNNY     67  37  33 S3        30.31R
ST GEORGE      SUNNY     72  52  49 E7        30.16R

$$

REGIONAL REPORTS     COLORADO/ARIZONA

CITY           SKY/WX    TMP DP  RH WIND       PRES   REMARKS
CRAIG, CO      SUNNY     57  41  55 CALM      30.38S
GRAND JUNCTION SUNNY     67  47  48 S6        30.28S
RIFLE          CLOUDY    54  49  83 CALM      30.35S
MONTROSE       CLOUDY    56  44  64 SE6       30.37R
CORTEZ         SUNNY     59  47  64 CALM      30.34R
PAGE, AZ       SUNNY     72  49  44 CALM      30.22R
GRAND CANYON   SUNNY     62  49  62 CALM      30.36R
KINGMAN        SUNNY     74  54  49 CALM      30.14R
FLAGSTAFF      SUNNY     59  48  67 CALM      30.37R

$$

REGIONAL REPORTS    NEVADA/IDAHO/WYOMING

CITY           SKY/WX    TMP DP  RH WIND       PRES   REMARKS
LAS VEGAS, NV  SUNNY     82  45  27 S3        30.03R
ELY            SUNNY     58  31  35 S7        30.37S
ELKO           MOSUNNY   58  29  33 E7        30.29R
POCATELLO, ID  SUNNY     61  38  42 N5        30.28R
BURLEY         SUNNY     57  43  59 CALM      30.22R
EVANSTON, WY   SUNNY     60  30  32 E3        30.44R
ROCK SPRINGS   SUNNY     59  26  28 NW3       30.42R

$$




USA.gov is the U.S. government's official web portal to all federal, state and local government web resources and services.